Wind_Speed
10 9 6 6 8 8 9 10 12 13 14 14 15 16 18 21 23 23 28 27 28 30 32 34 35 35 34 32 33 31 33 32 34 31 27 27 28 29 28 27 26 26 26 25 25 24 23 22 22
13 11 9 8 9 8 10 10 13 15 16 16 17 19 20 23 25 24 27 25 28 28 30 33 35 38 39 39 36 37 35 35 36 35 32 31 28 31 31 28 28 27 27 28 27 26 24 24 22
13 13 13 12 11 11 13 12 14 17 18 18 20 20 22 24 25 26 28 27 28 28 29 32 33 34 38 42 42 41 41 36 41 39 36 35 33 29 35 31 29 29 30 28 27 27 26 25 25
15 17 15 14 14 13 14 14 16 18 21 20 21 22 23 25 27 27 30 31 31 32 33 34 37 37 36 39 43 45 44 41 47 42 39 37 36 34 29 33 32 32 29 29 27 27 28 28 27
14 16 17 16 16 16 15 16 19 19 22 22 23 23 24 26 29 29 31 36 38 38 38 38 39 40 39 39 40 44 48 48 46 44 33 40 36 36 35 30 36 34 33 27 28 29 30 29 29
17 18 20 18 18 18 17 18 20 21 22 23 22 25 26 28 31 34 36 39 44 45 44 44 44 45 44 42 41 39 45 50 50 44 45 43 38 38 35 31 33 39 35 33 29 29 27 29 30
17 17 18 18 19 19 19 20 21 23 23 23 23 26 28 30 33 35 39 43 46 50 49 50 49 50 49 49 47 44 43 46 52 51 49 48 39 37 34 36 32 38 38 37 37 32 28 33 32
19 17 17 16 18 19 21 21 22 23 23 23 23 25 29 32 35 36 40 45 50 51 53 52 54 55 54 51 47 43 40 41 47 55 55 49 48 43 41 32 32 23 36 33 37 38 31 31 33
19 17 17 17 18 20 21 21 22 22 22 23 23 26 31 34 35 37 41 47 53 53 54 56 57 55 50 47 41 37 31 36 38 52 58 56 50 52 48 33 32 26 36 42 38 39 40 31 34
19 18 18 18 19 19 19 20 21 22 22 22 24 28 32 34 37 39 43 49 53 54 55 55 54 53 45 42 38 35 33 32 37 40 54 55 53 52 52 37 40 39 29 33 34 35 34 28 25
20 19 19 19 18 17 18 20 21 22 21 22 25 29 33 35 38 40 45 51 54 55 55 47 45 44 39 37 37 37 34 32 31 38 46 55 49 45 50 50 38 34 31 27 29 30 34 34 25
20 21 20 19 19 19 19 21 22 20 19 23 27 29 33 35 38 41 46 51 55 54 49 44 41 37 31 28 26 30 34 36 33 34 38 48 47 42 40 50 52 40 46 43 21 22 25 26 19
20 21 21 20 21 20 21 22 22 20 21 25 28 30 32 36 38 42 48 52 55 52 43 43 38 35 32 31 29 28 31 37 37 34 36 39 47 41 36 47 48 44 35 37 44 23 26 21 22
20 20 21 20 21 21 22 23 22 21 21 25 27 30 33 35 38 43 49 53 54 45 41 42 40 38 37 36 36 36 35 39 42 37 36 38 46 54 36 46 45 40 31 34 40 26 27 22 26
20 20 20 20 20 22 23 24 22 21 21 25 27 31 32 34 38 43 50 52 47 42 42 45 43 41 38 36 36 36 35 34 31 35 36 36 40 49 41 38 51 32 23 27 30 45 26 23 24
21 22 22 22 21 22 23 23 21 22 23 25 28 31 32 34 39 43 49 51 44 43 46 47 45 44 42 35 34 31 30 24 23 29 37 35 39 52 42 38 29 47 25 33 34 35 31 28 23
22 23 25 24 24 23 23 24 22 22 23 25 28 30 30 34 39 43 49 50 42 43 48 47 50 41 40 40 32 27 22 17 19 22 35 35 39 47 50 30 37 37 51 34 39 28 39 26 24
24 26 26 27 24 23 23 24 24 22 24 25 27 28 29 32 36 41 47 49 43 43 50 47 51 39 38 39 30 19 17 17 19 22 26 39 39 46 56 36 34 38 42 36 39 35 34 38 26
26 28 29 27 26 22 24 22 26 23 23 24 25 26 27 31 35 40 46 51 44 43 49 50 50 39 34 40 26 19 13 18 14 21 27 34 42 42 44 52 32 28 32 37 44 44 25 24 25
27 31 30 25 25 22 24 21 24 23 22 23 24 25 25 29 33 37 45 50 47 41 48 51 50 41 32 37 26 17 10 15 13 16 23 32 44 44 43 42 49 41 32 41 32 31 35 30 30
25 28 26 25 23 23 23 21 22 22 21 21 22 23 23 28 32 35 43 47 51 41 46 52 48 45 32 35 22 9 7 11 11 10 16 29 38 45 42 42 41 41 34 34 26 23 30 38 36
24 25 25 24 22 21 22 22 20 21 20 19 20 21 21 26 29 34 41 47 50 44 44 50 48 43 32 33 20 10 5 7 8 7 10 20 32 45 42 40 37 38 41 40 21 24 22 26 24
23 23 23 22 21 20 21 22 19 19 19 19 19 20 19 23 28 31 37 43 47 50 42 48 50 46 31 28 23 9 0 1 4 5 8 12 31 43 41 41 37 36 42 32 31 24 19 25 20
23 23 22 21 21 20 21 20 18 19 19 17 17 17 17 20 26 29 34 39 43 47 46 44 48 46 33 28 26 8 9 5 3 1 5 13 23 35 38 40 33 36 38 37 35 25 16 25 20
26 25 24 21 19 19 19 19 21 19 18 16 16 16 15 18 23 27 31 35 40 46 49 43 47 44 33 31 26 13 10 10 8 6 11 18 15 27 36 35 32 37 37 40 28 20 15 20 22
27 26 26 26 21 18 19 20 20 20 18 15 15 16 14 15 20 25 29 33 36 39 46 48 40 44 36 31 27 16 14 12 13 12 16 20 21 33 32 30 32 32 28 22 35 29 9 25 12
25 25 27 26 22 22 18 21 22 21 20 17 15 16 15 14 17 22 26 31 32 37 40 46 43 40 39 35 27 21 17 16 15 11 17 24 28 35 38 39 33 27 20 18 16 14 11 19 12
29 26 27 27 28 24 20 20 24 24 22 19 16 16 15 15 15 18 22 27 30 33 37 40 45 36 36 37 34 26 26 17 12 14 28 24 9 17 22 30 33 27 23 21 15 15 11 12 12
29 30 29 29 27 28 22 19 22 23 27 22 17 16 15 14 14 15 19 22 27 29 33 37 38 42 32 32 34 32 21 10 9 11 15 15 21 19 20 30 17 25 27 23 25 20 11 12 17
27 28 32 32 28 28 27 15 22 21 28 23 16 17 17 13 14 14 15 18 23 26 29 34 34 38 39 30 32 31 34 30 12 15 21 16 7 13 23 22 19 23 18 16 13 13 12 13 15
Wind_Direction
310 320 326 322 326 350 2 358 359 357 349 343 338 336 346 351 352 351 353 348 343 336 330 324 317 311 302 290 281 276 274 271 272 266 257 255 250 246 250 252 250 246 246 249 247 238 229 228 231
293 298 298 298 299 319 336 348 343 346 345 342 339 341 344 348 350 349 348 344 341 336 333 328 319 309 301 292 281 271 267 268 265 265 260 251 250 250 248 246 250 248 245 243 245 244 240 231 230
289 286 284 285 286 293 312 327 331 336 339 338 340 342 340 346 346 347 348 340 337 334 332 329 324 313 302 294 284 274 266 265 265 260 256 254 247 249 249 248 246 246 244 243 239 242 242 240 234
286 286 286 282 285 289 302 318 324 324 327 332 337 338 340 348 346 344 346 341 335 334 333 331 327 318 308 297 286 275 266 259 255 263 260 250 251 246 247 247 249 244 246 243 246 240 241 242 239
290 289 289 289 287 288 294 309 320 318 318 323 329 333 338 343 344 344 344 341 335 332 332 329 325 320 309 299 290 279 265 256 253 253 257 253 248 249 247 243 241 244 234 248 246 246 242 241 243
291 289 288 290 288 287 292 299 309 311 313 317 328 332 337 338 339 343 342 339 335 330 328 328 325 319 309 300 291 286 275 255 248 249 245 254 246 246 248 237 245 240 245 235 242 240 243 245 242
294 294 290 289 292 293 295 295 299 306 310 316 327 332 335 336 339 342 340 338 335 328 328 327 321 314 306 298 293 287 282 264 244 241 241 244 231 243 240 251 244 247 248 245 238 240 251 243 235
302 298 289 290 294 299 302 301 301 304 308 316 325 329 334 335 339 340 337 337 333 329 329 323 316 307 301 295 286 279 271 263 247 236 237 237 238 228 241 227 234 233 245 228 244 235 237 244 237
303 297 291 292 294 297 299 301 303 305 308 315 322 327 331 336 338 336 335 336 330 330 326 320 312 304 296 285 277 273 275 263 258 236 232 231 234 238 238 228 217 213 227 241 240 230 232 236 245
297 302 297 297 295 295 297 298 305 310 312 314 319 326 330 335 334 335 336 335 331 330 324 319 311 307 297 286 273 269 269 268 258 248 232 229 227 233 240 231 211 207 231 218 211 220 223 223 240
294 303 301 298 298 297 296 298 306 313 313 315 321 327 330 333 335 337 338 336 334 329 326 323 321 317 307 294 278 261 263 264 262 250 238 231 226 227 231 234 201 208 227 221 221 213 227 231 231
291 298 298 297 302 305 304 303 306 314 315 320 323 327 333 335 336 339 340 338 334 332 331 331 329 325 318 309 296 269 258 262 258 257 243 231 227 226 226 227 230 231 218 221 215 219 217 219 202
290 294 293 295 300 306 307 304 305 311 316 321 325 333 336 338 339 342 341 341 337 337 333 334 327 319 311 303 294 283 269 264 255 250 247 235 219 212 219 221 230 234 224 220 221 218 213 210 213
294 295 294 296 299 305 306 301 305 306 317 322 328 336 339 340 341 345 346 342 341 337 336 332 327 321 311 304 297 291 284 280 263 247 242 234 217 221 217 207 214 232 216 230 230 207 210 206 226
290 293 294 296 301 307 306 301 302 306 319 324 330 336 339 340 343 349 348 341 342 339 336 332 329 322 312 301 295 295 293 287 257 239 229 229 221 214 202 196 223 216 202 207 233 231 209 232 222
289 294 292 292 296 301 305 299 303 310 318 323 332 337 341 341 345 352 349 344 343 341 337 335 334 328 320 309 298 290 292 280 255 237 221 221 218 209 222 208 217 222 212 212 217 218 215 216 219
290 294 293 293 294 299 306 303 303 307 313 322 332 337 341 342 347 355 350 349 345 341 340 340 336 330 325 321 306 285 287 264 255 238 221 217 217 208 200 185 195 212 231 219 216 210 208 215 221
290 296 296 292 291 296 301 303 300 305 313 322 333 337 341 344 349 355 351 353 347 344 346 343 344 335 325 328 319 278 268 255 251 245 229 218 214 208 210 192 182 217 212 224 217 212 208 216 206
291 295 300 291 288 288 294 303 300 303 310 318 331 336 341 345 352 355 355 356 352 347 350 349 345 342 331 328 321 279 256 247 259 241 232 221 213 210 209 213 188 197 203 206 211 211 200 200 204
288 297 299 290 286 289 292 301 299 300 308 315 327 335 341 346 352 356 357 358 357 348 350 350 348 347 336 333 329 288 280 245 263 244 233 221 213 208 208 209 200 193 190 216 213 219 225 207 196
297 303 298 290 287 291 289 296 296 300 307 314 324 334 341 345 353 357 359 358 1 354 351 355 357 352 345 341 339 293 290 234 264 246 232 220 212 207 206 206 207 204 202 201 200 226 221 213 221
301 305 298 293 292 290 290 295 299 300 306 311 323 335 341 346 353 359 1 1 1 2 357 358 359 359 355 349 347 310 278 229 259 267 223 221 207 202 201 204 207 207 209 214 207 220 210 212 218
298 303 298 294 293 294 293 300 301 305 304 313 323 332 339 347 353 360 2 1 3 6 1 3 3 3 0 357 359 349 54 229 255 272 235 207 199 197 195 198 199 201 207 201 213 216 211 213 212
294 301 300 296 294 295 297 300 305 300 301 309 316 327 336 348 354 359 3 5 1 7 9 5 6 8 7 6 4 16 47 25 10 307 162 155 174 191 193 196 191 197 190 210 221 215 218 205 208
293 297 300 296 295 295 296 301 303 304 301 304 310 321 329 348 354 357 6 8 5 5 12 11 12 13 17 22 18 25 35 30 18 98 148 143 160 179 190 187 189 188 190 208 213 211 201 200 205
287 293 296 300 300 294 293 299 302 308 302 298 303 311 317 338 351 356 9 10 13 4 12 15 15 19 23 31 32 38 72 47 36 122 161 159 142 148 153 169 164 159 180 201 215 231 251 197 216
285 287 290 292 296 300 296 292 295 298 303 305 298 306 312 323 341 353 5 13 12 12 9 14 21 21 22 32 39 54 60 69 75 106 152 143 150 154 152 145 146 154 165 183 194 205 210 203 213
280 283 285 289 290 293 299 292 292 294 298 304 303 301 306 311 325 348 359 12 15 14 14 11 21 25 28 25 37 49 62 67 100 106 141 140 160 168 156 175 159 165 160 163 161 165 181 193 210
277 277 280 283 286 291 296 297 297 294 293 296 300 295 298 307 317 338 352 5 16 15 19 22 22 29 31 33 36 37 37 43 53 58 87 100 140 147 132 160 157 161 166 180 193 186 200 223 236
277 280 279 281 287 284 290 304 299 290 288 294 299 284 288 302 311 325 342 356 11 21 17 26 31 31 38 36 37 40 38 46 73 76 103 134 136 143 149 155 163 150 155 184 184 179 215 216 232
Height
5839 5838 5838 5838 5839 5835 5834 5834 5832 5831 5830 5827 5826 5824 5822 5820 5818 5818 5813 5811 5808 5806 5803 5801 5799 5797 5796 5795 5794 5795 5794 5794 5793 5795 5796 5796 5797 5797 5800 5802 5803 5803 5804 5807 5809 5811 5812 5813 5814
5838 5837 5837 5836 5837 5834 5833 5832 5831 5829 5827 5826 5824 5822 5820 5818 5815 5812 5810 5807 5806 5802 5799 5796 5793 5790 5788 5787 5787 5787 5787 5787 5786 5787 5789 5790 5791 5793 5793 5796 5797 5799 5801 5802 5805 5807 5809 5810 5811
5836 5835 5835 5834 5833 5833 5832 5830 5829 5828 5826 5824 5822 5820 5817 5815 5812 5809 5806 5803 5801 5798 5794 5791 5788 5785 5781 5778 5777 5778 5779 5780 5779 5778 5781 5783 5785 5787 5788 5791 5792 5794 5795 5797 5800 5802 5805 5808 5808
5835 5834 5834 5832 5832 5831 5830 5829 5827 5825 5823 5821 5819 5817 5815 5812 5809 5807 5803 5801 5798 5794 5790 5786 5782 5778 5775 5771 5768 5767 5769 5773 5770 5770 5772 5775 5778 5780 5782 5785 5786 5788 5790 5792 5796 5798 5800 5804 5805
5832 5831 5830 5830 5829 5829 5827 5826 5825 5823 5821 5819 5816 5814 5811 5808 5806 5803 5799 5796 5791 5787 5783 5779 5775 5771 5767 5762 5759 5756 5755 5758 5760 5764 5762 5766 5769 5771 5774 5778 5780 5781 5786 5788 5790 5793 5796 5799 5802
5830 5829 5828 5826 5826 5826 5825 5823 5822 5820 5818 5817 5814 5811 5808 5804 5801 5797 5793 5789 5784 5779 5774 5770 5766 5761 5756 5752 5747 5744 5742 5744 5748 5752 5756 5758 5760 5763 5767 5771 5775 5775 5779 5782 5786 5788 5791 5795 5797
5827 5826 5825 5823 5823 5822 5822 5820 5819 5817 5815 5813 5810 5807 5804 5801 5797 5793 5788 5782 5777 5772 5766 5761 5754 5748 5743 5739 5735 5731 5729 5728 5733 5739 5742 5746 5750 5755 5759 5764 5768 5771 5774 5776 5780 5783 5786 5788 5790
5824 5823 5822 5820 5820 5818 5817 5816 5814 5813 5811 5808 5806 5804 5800 5796 5792 5788 5783 5777 5770 5765 5757 5750 5743 5735 5728 5723 5719 5717 5715 5714 5717 5724 5729 5735 5741 5745 5748 5755 5761 5766 5767 5767 5772 5775 5780 5782 5784
5821 5821 5820 5818 5817 5816 5814 5812 5811 5809 5807 5805 5802 5800 5796 5792 5787 5783 5777 5771 5763 5756 5747 5738 5730 5722 5715 5710 5707 5705 5704 5703 5705 5708 5715 5721 5729 5735 5740 5748 5754 5760 5751 5761 5764 5766 5772 5775 5779
5818 5817 5817 5815 5814 5812 5810 5809 5807 5806 5803 5801 5799 5796 5792 5788 5783 5778 5771 5763 5756 5748 5739 5728 5716 5707 5701 5697 5695 5694 5693 5694 5695 5697 5701 5708 5716 5725 5732 5740 5744 5749 5751 5751 5756 5760 5764 5767 5773
5815 5814 5813 5812 5811 5809 5808 5806 5804 5802 5800 5798 5795 5792 5787 5783 5778 5772 5765 5757 5748 5737 5726 5716 5706 5696 5690 5686 5684 5683 5684 5685 5686 5688 5691 5698 5706 5713 5723 5731 5734 5741 5740 5748 5752 5753 5757 5762 5767
5812 5810 5810 5809 5807 5806 5804 5803 5801 5799 5797 5794 5792 5787 5783 5778 5772 5766 5759 5751 5740 5728 5715 5706 5698 5690 5683 5678 5674 5673 5675 5675 5677 5679 5682 5689 5698 5705 5712 5720 5724 5733 5737 5740 5747 5749 5752 5757 5763
5808 5807 5807 5806 5804 5802 5800 5798 5797 5795 5793 5791 5787 5783 5778 5772 5767 5761 5753 5744 5732 5719 5709 5701 5693 5685 5678 5673 5670 5667 5666 5665 5667 5670 5674 5679 5687 5696 5700 5710 5716 5724 5730 5734 5741 5745 5751 5754 5759
5806 5805 5803 5802 5801 5799 5798 5795 5793 5791 5788 5786 5783 5779 5773 5767 5762 5755 5747 5737 5724 5713 5705 5697 5687 5679 5672 5666 5661 5658 5656 5654 5653 5659 5665 5671 5676 5684 5689 5700 5709 5718 5720 5729 5735 5741 5746 5749 5754
5802 5801 5800 5798 5797 5795 5794 5792 5790 5787 5784 5782 5779 5774 5768 5763 5758 5750 5742 5731 5718 5708 5699 5690 5680 5670 5662 5655 5650 5646 5644 5640 5641 5647 5654 5661 5668 5677 5684 5693 5702 5708 5714 5723 5728 5735 5741 5744 5749
5798 5798 5797 5794 5792 5791 5790 5787 5786 5783 5781 5779 5775 5771 5765 5760 5753 5745 5736 5725 5711 5702 5692 5681 5671 5662 5653 5646 5639 5635 5633 5632 5633 5638 5644 5652 5659 5668 5675 5685 5694 5702 5710 5718 5724 5729 5735 5741 5746
5795 5795 5794 5792 5789 5788 5786 5783 5782 5780 5778 5775 5771 5767 5762 5756 5749 5741 5732 5719 5707 5697 5687 5675 5664 5653 5645 5636 5629 5627 5625 5625 5628 5631 5637 5644 5651 5661 5670 5675 5687 5697 5706 5713 5719 5725 5731 5736 5742
5792 5791 5790 5788 5787 5784 5783 5781 5779 5777 5774 5772 5768 5764 5759 5753 5746 5737 5729 5716 5704 5693 5682 5670 5658 5647 5639 5630 5622 5620 5620 5621 5623 5626 5630 5637 5643 5652 5660 5667 5678 5692 5699 5707 5714 5723 5726 5733 5738
5789 5788 5786 5784 5782 5781 5778 5778 5774 5773 5771 5769 5766 5762 5756 5750 5743 5735 5726 5712 5700 5689 5679 5666 5653 5642 5634 5625 5617 5615 5615 5617 5619 5621 5624 5629 5637 5645 5654 5660 5671 5686 5694 5701 5709 5717 5723 5729 5734
5784 5783 5781 5780 5776 5776 5773 5774 5771 5769 5767 5765 5763 5759 5754 5748 5741 5733 5724 5711 5698 5687 5676 5663 5649 5638 5629 5621 5613 5611 5611 5613 5615 5615 5617 5621 5630 5639 5649 5657 5666 5676 5685 5697 5706 5713 5721 5726 5730
5780 5778 5776 5776 5773 5771 5769 5770 5767 5765 5763 5761 5759 5756 5751 5745 5739 5730 5722 5709 5697 5685 5675 5661 5647 5635 5626 5618 5611 5609 5608 5610 5611 5610 5611 5614 5622 5634 5644 5654 5663 5670 5681 5692 5702 5708 5715 5723 5727
5775 5773 5772 5772 5769 5767 5766 5766 5764 5762 5760 5758 5756 5753 5748 5743 5737 5728 5721 5709 5697 5685 5674 5661 5647 5635 5625 5618 5611 5608 5607 5608 5608 5607 5607 5609 5617 5628 5640 5652 5660 5669 5678 5690 5699 5707 5712 5718 5725
5771 5769 5768 5768 5765 5764 5762 5762 5760 5758 5757 5755 5753 5750 5746 5741 5735 5727 5720 5710 5699 5686 5674 5662 5648 5635 5626 5618 5612 5610 5608 5608 5607 5606 5605 5607 5614 5625 5638 5650 5661 5670 5679 5687 5698 5706 5711 5716 5721
5766 5765 5764 5764 5761 5760 5759 5759 5757 5755 5753 5752 5749 5747 5744 5739 5733 5726 5719 5711 5701 5689 5675 5664 5651 5639 5629 5621 5614 5612 5610 5609 5608 5607 5606 5607 5613 5626 5637 5649 5658 5669 5679 5688 5695 5703 5708 5713 5718
5763 5762 5760 5761 5758 5757 5755 5755 5753 5752 5750 5748 5746 5744 5741 5737 5732 5726 5718 5712 5702 5692 5680 5667 5655 5644 5634 5626 5619 5615 5614 5614 5612 5611 5611 5613 5615 5625 5637 5650 5659 5669 5678 5688 5695 5702 5704 5710 5716
5758 5758 5757 5754 5755 5755 5753 5751 5750 5748 5746 5745 5743 5741 5739 5736 5732 5726 5718 5712 5704 5696 5684 5673 5661 5650 5640 5632 5626 5623 5619 5618 5617 5617 5618 5621 5624 5628 5639 5650 5661 5669 5680 5687 5695 5698 5704 5710 5716
5754 5753 5753 5751 5750 5749 5750 5748 5746 5744 5743 5742 5741 5739 5737 5734 5731 5725 5719 5712 5706 5699 5689 5679 5667 5657 5648 5640 5634 5630 5626 5624 5623 5625 5625 5627 5629 5635 5640 5651 5661 5670 5679 5688 5695 5698 5705 5710 5713
5749 5749 5748 5747 5745 5745 5746 5743 5741 5741 5740 5740 5738 5737 5735 5733 5730 5725 5720 5713 5707 5701 5694 5684 5673 5664 5656 5649 5642 5638 5636 5633 5632 5632 5633 5634 5636 5642 5647 5652 5664 5672 5680 5688 5694 5697 5703 5707 5712
5743 5743 5743 5742 5742 5738 5740 5741 5737 5737 5734 5735 5735 5734 5732 5730 5728 5724 5720 5714 5709 5703 5698 5690 5681 5672 5663 5657 5651 5646 5642 5640 5638 5639 5639 5640 5643 5648 5652 5659 5666 5672 5681 5686 5691 5696 5702 5705 5709
5738 5737 5736 5736 5737 5736 5734 5738 5731 5731 5728 5730 5732 5730 5728 5728 5726 5723 5720 5716 5711 5705 5700 5695 5687 5679 5671 5664 5658 5654 5648 5644 5643 5644 5644 5648 5652 5656 5659 5665 5670 5677 5682 5687 5690 5696 5701 5704 5707